Weather reports worldwide

Advertisment
Holbeach, United Kingdom (3469): temperature & dewpoint: 14.10.2017 22:00:00 - 20.10.2017 22:00:00 (BST)Holbeach, United Kingdom (3469): temperature -20cm & temperature -100cm: 14.10.2017 22:00:00 - 20.10.2017 22:00:00 (BST)Holbeach, United Kingdom (3469): wind speed & gusts: 14.10.2017 22:00:00 - 20.10.2017 22:00:00 (BST)Holbeach, United Kingdom (3469): wind direction: 14.10.2017 22:00:00 - 20.10.2017 22:00:00 (BST)Holbeach, United Kingdom (3469): reduced air pressure: 14.10.2017 22:00:00 - 20.10.2017 22:00:00 (BST)Holbeach, United Kingdom (3469): visibility: 14.10.2017 22:00:00 - 20.10.2017 22:00:00 (BST)Holbeach, United Kingdom (3469): precipitation: 14.10.2017 22:00:00 - 20.10.2017 22:00:00 (BST)
Date & Time tt [°C] td [°C] tt -20cm [°C] tt -100cm [°C] ff [km/h] ff [kn] fx [km/h] fx [kn] dd ppp [hPa] vv [km] rr [mm]
20.10.2017 22:00:00 10,4 7,3 - - 15 8 - - S 1006,0 28 -
20.10.2017 21:00:00 10,3 7,4 - - 15 8 - - S 1006,7 30 0,0
20.10.2017 20:00:00 10,8 7,2 - - 16 9 - - SW 1007,1 30 0,0
20.10.2017 19:00:00 11,9 8,5 - - 26 14 - - SW 1007,2 50 0,0
20.10.2017 18:00:00 12,9 9,4 - - 29 16 46 25 WSW 1006,6 40 0,0
20.10.2017 17:00:00 13,7 10,9 - - 24 13 - - WSW 1006,0 50 0,0
20.10.2017 16:00:00 14,6 11,4 - - 24 13 48 26 W 1005,2 50 0,0
20.10.2017 15:00:00 14,7 11,7 - - 31 17 52 28 W 1004,2 50 0,0
20.10.2017 14:00:00 15,3 13,1 - - 28 15 - - W 1003,3 30 0,2
20.10.2017 13:00:00 13,7 12,5 - - 21 11 - - W 1002,8 4,4 0,0
20.10.2017 12:00:00 14,3 12,1 - - 24 13 - - W 1002,0 45 0,0
20.10.2017 11:00:00 13,5 11,6 - - 26 14 - - W 1001,1 10 0,0
20.10.2017 10:00:00 12,8 11,7 13,9 14,0 26 14 - - WNW 999,6 10 0,0
20.10.2017 09:00:00 12,1 11,6 - - 21 11 - - W 998,4 3,5 0,2
20.10.2017 08:00:00 11,9 11,2 - - 11 6 - - SSW 997,0 23 0,4
20.10.2017 07:00:00 12,2 10,7 - - 13 7 - - S 996,4 7 0,0
20.10.2017 06:00:00 12,2 10,5 - - 13 7 - - S 996,2 13 0,0
20.10.2017 05:00:00 12,7 10,1 - - 18 10 - - S 996,0 35 0,0
20.10.2017 04:00:00 12,7 10,2 - - 18 10 - - S 996,4 26 0,0
20.10.2017 03:00:00 13,3 11,3 - - 18 10 - - S 996,7 50 0,0
20.10.2017 02:00:00 14,0 11,8 - - 28 15 48 26 S 996,9 50 0,0
20.10.2017 01:00:00 14,9 12,0 - - 22 12 - - S 997,3 45 0,0
20.10.2017 00:00:00 15,1 12,4 - - 24 13 - - S 997,7 35 0,0
19.10.2017 23:00:00 15,2 13,4 - - 21 11 - - S 998,3 15 0,0
19.10.2017 22:00:00 14,8 12,9 - - 18 10 - - SSE 998,9 13 0,0
19.10.2017 21:00:00 15,2 13,4 - - 18 10 - - S 999,6 14 0,0
19.10.2017 20:00:00 15,8 14,1 - - 26 14 - - S 1000,0 12 0,0
19.10.2017 19:00:00 16,5 14,6 - - 22 12 - - S 1000,0 13 0,0
19.10.2017 18:00:00 16,4 14,6 - - 21 11 - - S 1000,1 12 0,0
19.10.2017 17:00:00 16,5 14,4 - - 21 11 - - S 1000,3 14 0,0
19.10.2017 16:00:00 16,8 14,7 - - 28 15 - - S 1000,5 8 0,0
19.10.2017 15:00:00 17,6 15,4 - - 34 18 - - SSE 1000,9 5 0,0
19.10.2017 14:00:00 16,7 15,9 - - 22 12 - - SSE 1002,2 4,0 0,0
19.10.2017 13:00:00 15,5 15,3 - - 13 7 - - ESE 1003,6 2,5 0,0
19.10.2017 12:00:00 15,0 14,8 - - 21 11 - - ESE 1004,7 2,3 0,0
19.10.2017 11:00:00 14,6 14,5 - - 16 9 - - SSE 1005,8 1,8 0,2
19.10.2017 10:00:00 14,3 14,2 13,7 14,0 13 7 - - SSE 1006,6 0,9 0,8
19.10.2017 09:00:00 14,1 13,9 - - 13 7 - - S 1006,9 0,8 0,0
19.10.2017 08:00:00 14,0 13,9 - - 8 4 - - SSE 1006,6 1,8 0,0
19.10.2017 07:00:00 14,1 13,9 - - 8 4 - - S 1006,8 0,5 0,0
19.10.2017 06:00:00 14,1 13,9 - - 11 6 - - S 1007,3 0,5 0,0
19.10.2017 05:00:00 14,0 13,9 - - 13 7 - - S 1007,5 0,7 0,0
19.10.2017 04:00:00 13,9 13,8 - - 9 5 - - S 1008,0 1,5 0,0
19.10.2017 03:00:00 13,6 13,5 - - 9 5 - - S 1008,6 1,2 0,0
19.10.2017 02:00:00 13,4 13,2 - - 8 4 - - SSE 1009,1 1,3 0,0
19.10.2017 01:00:00 13,3 13,1 - - 8 4 - - SSE 1009,2 1,3 0,0
19.10.2017 00:00:00 13,0 12,9 - - 8 4 - - SSE 1009,6 1,6 0,2
18.10.2017 23:00:00 12,8 12,5 - - 11 6 - - SE 1009,7 1,3 0,0
18.10.2017 22:00:00 12,8 12,4 - - 9 5 - - SE 1010,4 3,6 0,0
18.10.2017 21:00:00 12,9 12,4 - - 13 7 - - ESE 1010,7 11 0,0
18.10.2017 20:00:00 12,7 12,3 - - 18 10 - - E 1010,7 8 0,0
18.10.2017 19:00:00 12,6 12,0 - - 18 10 - - E 1011,0 14 0,0
18.10.2017 18:00:00 12,2 11,4 - - 24 13 - - ENE 1011,1 19 0,0
18.10.2017 17:00:00 11,9 11,0 - - 26 14 - - ENE 1011,4 35 0,2
18.10.2017 16:00:00 11,4 10,9 - - 28 15 - - E 1011,8 4,0 0,6
18.10.2017 15:00:00 11,5 10,4 - - 22 12 - - E 1012,2 10 0,0
18.10.2017 14:00:00 11,5 10,8 - - 22 12 - - E 1012,5 10 0,0
18.10.2017 13:00:00 11,8 10,3 - - 21 11 - - ENE 1013,1 10 0,0
18.10.2017 12:00:00 11,8 9,8 - - 18 10 - - ENE 1013,6 10 0,0
18.10.2017 11:00:00 11,7 9,8 - - 15 8 - - E 1013,8 10 0,0
18.10.2017 10:00:00 10,6 9,3 13,5 14,0 9 5 - - SE 1014,3 10 0,0
18.10.2017 09:00:00 10,6 8,2 - - 13 7 - - SSE 1014,3 10 0,0
18.10.2017 08:00:00 10,4 8,5 - - 8 4 - - SE 1014,0 50 0,0
18.10.2017 07:00:00 10,5 8,9 - - 13 7 - - E 1013,8 45 0,0
18.10.2017 06:00:00 10,3 8,5 - - 11 6 - - E 1014,1 50 0,0
18.10.2017 05:00:00 10,0 8,6 - - 9 5 - - NE 1014,7 45 0,2
18.10.2017 04:00:00 10,1 9,3 - - 5 3 - - SE 1015,2 12 0,2
18.10.2017 03:00:00 9,9 8,9 - - 5 3 - - NE 1015,7 17 0,2
18.10.2017 02:00:00 9,9 8,4 - - 9 5 - - NNW 1016,1 18 0,2
18.10.2017 01:00:00 10,4 8,8 - - 8 4 - - W 1016,8 17 0,2
18.10.2017 00:00:00 10,6 8,7 - - 9 5 - - SSW 1017,0 16 0,0
17.10.2017 23:00:00 10,8 8,1 - - 8 4 - - S 1016,8 30 0,0
17.10.2017 22:00:00 11,0 7,0 - - 5 3 - - W 1016,5 45 0,0
17.10.2017 21:00:00 10,8 7,5 - - 8 4 - - SW 1016,6 30 0,0
17.10.2017 20:00:00 10,5 6,9 - - 8 4 - - WSW 1016,5 10 0,0
17.10.2017 19:00:00 11,5 6,8 - - 8 4 - - WSW 1016,5 10 0,0
17.10.2017 18:00:00 13,4 6,7 - - 8 4 - - W 1016,6 10 0,0
17.10.2017 17:00:00 14,5 6,0 - - 15 8 - - W 1016,7 10 0,0
17.10.2017 16:00:00 15,7 6,3 - - 26 14 - - W 1016,7 10 0,0
17.10.2017 15:00:00 16,6 6,9 - - 34 18 50 27 W 1016,9 10 0,0
17.10.2017 14:00:00 16,6 7,2 - - 34 18 61 33 W 1017,1 10 0,0
17.10.2017 13:00:00 16,0 7,2 - - 41 22 59 32 W 1017,1 10 0,0
17.10.2017 12:00:00 15,3 7,6 - - 39 21 55 30 WSW 1017,2 10 0,0
17.10.2017 11:00:00 14,2 7,8 - - 41 22 55 30 WSW 1017,5 10 0,0
17.10.2017 10:00:00 12,5 8,5 13,7 14,0 44 24 50 27 SW 1017,2 10 0,0
17.10.2017 09:00:00 11,2 7,9 - - 37 20 50 27 SW 1016,9 10 0,0
17.10.2017 08:00:00 10,0 7,4 - - 31 17 54 29 SW 1016,3 17 0,0
17.10.2017 07:00:00 10,1 7,3 - - 37 20 52 28 SSW 1015,9 17 0,0
17.10.2017 06:00:00 10,4 7,2 - - 34 18 48 26 SSW 1015,6 17 0,0
17.10.2017 05:00:00 10,8 7,1 - - 35 19 52 28 SSW 1015,1 20 0,0
17.10.2017 04:00:00 11,3 6,9 - - 35 19 52 28 SSW 1015,0 20 0,0
17.10.2017 03:00:00 12,0 7,1 - - 39 21 65 35 SW 1014,9 16 0,0
17.10.2017 02:00:00 12,4 7,1 - - 42 23 61 33 SW 1014,3 20 0,0
17.10.2017 01:00:00 13,0 7,6 - - 46 25 65 35 SW 1014,0 18 0,0
17.10.2017 00:00:00 13,2 7,4 - - 44 24 65 35 SW 1013,8 22 0,0
16.10.2017 23:00:00 13,3 7,8 - - 41 22 70 38 SW 1013,3 16 0,0
16.10.2017 22:00:00 13,7 8,0 - - 48 26 72 39 SW 1012,7 19 0,0
16.10.2017 21:00:00 14,3 8,2 - - 50 27 72 39 SSW 1012,4 16 0,0
16.10.2017 20:00:00 14,9 8,5 - - 44 24 80 43 SW 1012,4 22 0,0
16.10.2017 19:00:00 15,4 10,6 - - 41 22 70 38 SSW 1011,7 16 -
16.10.2017 18:00:00 17,1 10,8 - - 42 23 63 34 SSW 1011,1 21 0,0
16.10.2017 17:00:00 18,4 11,3 - - 50 27 65 35 SSW 1011,0 22 0,0
16.10.2017 16:00:00 19,8 14,1 - - 41 22 59 32 SSW 1011,0 10 0,0
16.10.2017 15:00:00 21,2 15,4 - - 37 20 55 30 SSW 1011,0 10 0,0
16.10.2017 14:00:00 22,1 15,8 - - 35 19 55 30 SSW 1011,3 10 0,0
16.10.2017 13:00:00 22,0 15,7 - - 41 22 54 29 SSW 1012,1 10 0,0
16.10.2017 12:00:00 21,1 16,5 - - 34 18 - - S 1012,8 10 0,0
16.10.2017 11:00:00 19,0 16,1 - - 29 16 - - SSE 1013,2 10 0,0
16.10.2017 10:00:00 16,0 14,8 14,0 14,0 21 11 - - S 1014,3 5 0,0
16.10.2017 09:00:00 14,2 13,7 - - 21 11 - - SSE 1014,5 3,0 0,0
16.10.2017 08:00:00 14,0 13,4 - - 13 7 - - SSE 1015,6 2,9 0,0
16.10.2017 07:00:00 13,8 13,1 - - 9 5 - - SSE 1015,7 3,2 0,0
16.10.2017 06:00:00 13,7 13,1 - - 15 8 - - S 1015,8 3,1 0,0
16.10.2017 05:00:00 13,5 13,0 - - 11 6 - - S 1016,1 2,5 0,0
16.10.2017 04:00:00 13,1 12,4 - - 5 3 - - S 1016,0 2,9 0,0
16.10.2017 03:00:00 13,1 12,3 - - 9 5 - - S 1016,2 4,6 0,0
16.10.2017 02:00:00 12,3 11,8 - - 8 4 - - S 1016,4 4,3 0,0
16.10.2017 01:00:00 11,9 11,3 - - 5 3 - - S 1016,5 3,0 0,0
16.10.2017 00:00:00 12,2 11,5 - - 13 7 - - SSW 1016,6 4,7 0,0
15.10.2017 23:00:00 12,4 11,2 - - 13 7 - - SSW 1016,8 6 0,0
15.10.2017 22:00:00 13,1 11,6 - - 21 11 - - SSW 1016,6 9 0,0
15.10.2017 21:00:00 13,7 12,1 - - 16 9 - - SSW 1016,4 11 0,0
15.10.2017 20:00:00 14,0 12,1 - - 15 8 - - SW 1016,3 12 0,0
15.10.2017 19:00:00 15,4 12,4 - - 21 11 - - SW 1015,9 15 0,0
15.10.2017 18:00:00 16,8 13,0 - - 22 12 - - SSW 1015,2 20 0,0
15.10.2017 17:00:00 18,1 13,3 - - 22 12 - - SSW 1015,1 19 0,0
15.10.2017 16:00:00 18,4 13,3 - - 26 14 - - SW 1015,4 27 0,0
15.10.2017 15:00:00 18,4 13,7 - - 28 15 - - SW 1015,7 35 0,0
15.10.2017 14:00:00 17,3 14,2 - - 28 15 - - SW 1015,7 13 0,0
15.10.2017 13:00:00 15,9 14,2 - - 24 13 - - SSW 1016,1 9 0,0
15.10.2017 12:00:00 15,2 13,9 - - 24 13 - - SSW 1016,5 8 0,0
15.10.2017 11:00:00 14,7 13,3 - - 22 12 - - SW 1016,8 8 0,0
15.10.2017 10:00:00 13,7 12,9 14,0 14,0 16 9 - - SSW 1017,0 6 0,0
15.10.2017 09:00:00 11,8 11,6 - - 11 6 - - SSW 1017,2 3,5 0,0
15.10.2017 08:00:00 10,9 10,5 - - 13 7 - - SSW 1017,1 2,3 0,2
15.10.2017 07:00:00 11,5 11,1 - - 13 7 - - S 1017,4 3,6 0,0
15.10.2017 06:00:00 11,7 11,2 - - 11 6 - - S 1017,9 4,8 0,0
15.10.2017 05:00:00 12,3 11,7 - - 16 9 - - S 1018,4 6 0,0
15.10.2017 04:00:00 12,4 11,7 - - 11 6 - - S 1019,2 8 0,0
15.10.2017 03:00:00 12,3 11,7 - - 9 5 - - S 1019,9 7 0,0
15.10.2017 02:00:00 12,7 11,7 - - 11 6 - - S 1020,5 9 0,0
15.10.2017 01:00:00 13,1 11,8 - - 11 6 - - SSE 1021,0 14 0,0
15.10.2017 00:00:00 14,0 12,5 - - 11 6 - - SSW 1021,3 14 0,0
14.10.2017 23:00:00 15,0 13,4 - - 11 6 - - S 1021,7 17 0,0
14.10.2017 22:00:00 14,4 12,5 - - 15 8 - - SSW 1022,0 29 0,0

tt = temperature
td = dewpoint
tt -20cm = temperature -20cm
tt -100cm = temperature -100cm
ff = wind speed
fx = gusts
dd = wind direction
ppp = reduced air pressure
vv = visibility
rr = precipitation

Next stations